Location: Rayville (historical)
(39.9992°N, 99.6815°W)
Time: 19:50:44
(UTC+00:00)

Lacrosse 4 Rocket - Pass Details

Date: 18 February 2020
Orbit: 537 x 622 km, 68.0° (Epoch: 30 March)

Event Time Altitude Azimuth Distance (km) Brightness Sun altitude
Rises 02:35:33 0° 254° (WSW) 2,742 5.9 -27.2°
Reaches altitude 10° 02:38:42 10° 280° (W) 1,870 5.0 -27.8°
Maximum altitude 02:40:56 14° 313° (NW) 1,640 4.3 -28.2°
Drops below altitude 10° 02:43:13 10° 345° (NNW) 1,905 4.3 -28.7°
Enters shadow 02:44:15 - 356° (N) 2,153 4.5 -28.9°
